www.pogodaiklimat.ru

Погода и климат >> Архив погоды >> Россия >> Крым >> Феодосия


АРХИВ ПОГОДЫ в Феодосии

Время (UTC), дата Ветер
(напр.,м/с)
 
Видим.   Явления Облачность Т
(С)
Тd
(С)
f
(%)
Тe
(С)
Тes
(С)
Комфортность P
(гПа)
Po
(гПа)
Тmin
(С)
Tmax
(С)
R
(мм)
S
(см)
03 17.02 З 1 10 км ясно -6.3 -8.3 86 -9 -9 холодно 1032.7 1029.3 -6.3
06 17.02 СЗ 1 20 км ясно -4.0 -5.5 89 -6 -5 прохладно 1032.7 1029.3 -0.6
09 17.02 В 1 20 км ясно -0.2 -5.6 67 -2 +6 по сезону 1032.6 1029.3
12 17.02 ЮВ 2 20 км ясно +1.4 -9.5 44 -1 +3 по сезону 1031.3 1028.0
15 17.02 ЮВ 2 20 км 2 балла 0.0 -5.4 67 -3 -3 по сезону 1030.0 1026.7
18 17.02 Ю 3 10 км ясно +1.0 -3.8 70 -3 -3 по сезону 1028.6 1025.3 +2.2
21 17.02 Ю 2 10 км 2 балла +1.6 -2.5 74 -2 -2 по сезону 1028.6 1025.3
00 18.02 ЮВ 3 10 км 4 балла +1.6 -3.5 69 -2 -2 по сезону 1027.3 1024.0
03 18.02 ЮВ 2 10 км 2 балла +1.8 -4.7 62 -1 -1 по сезону 1026.0 1022.7 0.0
06 18.02 Ю 3 10 км 10 баллов +3.3 -2.4 66 -0 -0 по сезону 1026.0 1022.7 +1.0
09 18.02 Ю 4 10 км 10 баллов +5.0 -1.5 63 +1 +1 по сезону 1024.6 1021.3
12 18.02 Ю 4 10 км 7 баллов +7.0 -0.7 58 +4 +5 по сезону 1023.2 1020.0
15 18.02 Ю 2 10 км 2 балла +5.0 -0.2 69 +3 +3 по сезону 1023.3 1020.0
18 18.02 Ю 1 10 км 2 балла +2.6 -0.7 79 +1 +1 по сезону 1024.6 1021.3 +7.3
21 18.02 штиль 0 10 км ясно +1.8 -0.4 85 +1 +1 по сезону 1026.0 1022.7
00 19.02 штиль 0 10 км ясно 0.0 -0.8 94 -1 -1 по сезону 1026.0 1022.7
03 19.02 штиль 0 10 км ясно -0.4 -1.2 94 -2 -2 по сезону 1027.3 1024.0 -1.0
06 19.02 ЮЗ 1 10 км 9 баллов 0.0 -2.4 84 -2 -2 по сезону 1028.6 1025.3 -1.0
09 19.02 В 2 10 км 2 балла +4.7 +0.8 76 +2 +8 по сезону 1028.6 1025.3
12 19.02 ЮВ 3 20 км 6 баллов +9.6 +2.0 59 +8 +9 тепло 1028.5 1025.3
15 19.02 Ю 2 10 км 6 баллов +6.5 +1.2 69 +4 +4 тепло 1028.6 1025.3
18 19.02 С 1 10 км ясно +5.4 +2.4 81 +4 +4 тепло 1027.3 1024.0 +10.2
21 19.02 СВ 1 10 км 2 балла +4.7 +2.6 86 +3 +3 тепло 1027.3 1024.0
00 20.02 ЮЗ 2 10 км 4 балла +5.8 +3.1 83 +3 +3 тепло 1026.0 1022.7
03 20.02 В 2 10 км 6 баллов +5.6 +3.4 86 +3 +3 тепло 1024.5 1021.3 +3.9
06 20.02 В 3 4000 м дымка 2 балла +5.4 +3.6 88 +2 +3 тепло 1024.6 1021.3 +3.9
09 20.02 В 2 4000 м дымка 7 баллов +9.1 +5.8 80 +7 +10 тепло 1023.2 1020.0
12 20.02 Ю 2 20 км 7 баллов +9.0 +4.4 73 +7 +9 тепло 1020.5 1017.3
15 20.02 ЮВ 3 20 км 7 баллов +7.8 +4.2 78 +5 +5 тепло 1019.2 1016.0
18 20.02 ЮВ 1 10 км 7 баллов +6.9 +4.4 84 +6 +6 тепло 1017.9 1014.7 +10.8
21 20.02 Ю 1 10 км 10 баллов +6.4 +4.2 86 +5 +5 тепло 1016.5 1013.3
00 21.02 Ю 4 10 км 7 баллов +6.5 +5.0 90 +3 +3 тепло 1015.2 1012.0
03 21.02 Ю 2 3 балла +6.3 80 -19 -19 очень
холодно
1014.3 1010.7
06 21.02 Ю 3 10 км 9 баллов +6.4 +2.5 76 +3 +4 тепло 1013.9 1010.7 +5.2 0.7
09 21.02 Ю 4 10 км 9 баллов +7.4 +2.7 72 +4 +5 тепло 1013.9 1010.7
12 21.02 Ю 4
{10}
10 км 9 баллов +7.6 +2.5 70 +4 +5 по сезону 1011.2 1008.0
15 21.02 З 1 10 км 10 баллов +6.2 +3.4 82 +5 +5 тепло 1012.5 1009.3 +9.4 0.3
18 21.02 Ю 2 10 км 6 баллов +5.9 +3.7 86 +3 +3 тепло 1011.2 1008.0 +9.4 0.3
21 21.02 З 1 10 км 2 балла +5.4 +1.9 78 +4 +4 тепло 1011.2 1008.0
00 22.02 ЮЗ 1 10 км ясно +3.4 +1.1 85 +2 +2 тепло 1009.9 1006.7
03 22.02 Ю 1 10 км слабый ливневой дождь 10 баллов +5.2 +2.6 83 +4 +4 тепло 1009.9 1006.7 +3.3 0.1
06 22.02 СЗ 1 10 км слабый ливневой дождь 10 баллов +7.6 +5.7 88 +7 +7 тепло 1009.9 1006.7 +3.3 2
09 22.02 СЗ 1 10 км слабый ливневой дождь 10 баллов +5.7 +4.3 91 +4 +4 тепло 1008.5 1005.3
12 22.02 З 3 10 км 10 баллов +5.4 +3.2 86 +2 +2 по сезону 1008.5 1005.3
15 22.02 З 3
{10}
10 км 7 баллов +6.0 +2.6 79 +3 +3 по сезону 1011.2 1008.0 6
18 22.02 З 3 10 км 6 баллов +5.2 +1.1 75 +2 +2 тепло 1013.9 1010.7 +7.8 5
21 22.02 З 1 10 км ясно +3.5 -1.8 68 +2 +2 тепло 1015.2 1012.0
00 23.02 ЮЗ 2 10 км ясно +3.6 -0.8 73 +1 +1 по сезону 1013.9 1010.7
06 23.02 Ю 6
{12}
20 км 10 баллов +7.3 +3.4 76 +3 1009.9 1006.7 +2.4
09 23.02 Ю 7
{18}
4000 м дымка 9 баллов +8.5 +5.8 83 +4 +4 тепло 1008.5 1005.3
12 23.02 ЮЗ 6
{14}
10 км 10 баллов +11.2 +5.3 67 +8 +8 тепло 1007.1 1004.0
15 23.02 ЮЗ 1
{12}
10 км 9 баллов +10.9 +5.0 67 +11 +11 тепло 1008.4 1005.3
18 23.02 З 2 10 км 7 баллов +10.7 +3.5 61 +10 +10 тепло 1009.8 1006.7 +12.4
21 23.02 З 2 10 км 7 баллов +11.1 +3.1 58 +10 +10 тепло 1012.4 1009.3
00 24.02 Ю 1 10 км ясно +7.0 +3.1 76 +6 +6 тепло 1012.5 1009.3

 

Местоположение метеостанции Феодосия (Крым, Россия): широта 45.03 долгота 35.38 высота над уровнем моря 26 м.

В архиве по умолчанию представлена погода в Феодосии за последнюю неделю. Архивные данные за месяц целиком и за предыдущие месяцы, начиная с января 2011 года, Вы можете получить, выбрав интересующий диапазон дат из раскрывающегося списка и нажав кнопку "Ввод!".

Внимание! Время в таблицах - всемирное. Для получения местного времени необходимо прибавить поправку, которая в Феодосии равна 3 ч.

Смотрите также архив погоды в соседних городах и на ближайших метеорологических станциях:

Погода на Мысовом (Крым, Россия) (58 км)
Погода в Белогорске (Крым, Россия) (61 км)
Погода в Нижнегорском (Крым, Россия) (69 км)
Погода в Стрелковом (Херсонская область, Украина) (87 км)
Погода в Алуште (Крым, Россия) (87 км)
Погода в Керчи (Крым, Россия) (91 км)
Погода в Никитском саду (Крым, Россия) (106 км)
Погода в Тамани (Краснодарский край, Россия) (107 км)
Погода в Джанкое (Крым, Россия) (108 км)
Погода в Клепинино (Крым, Россия) (109 км)

Пояснения к столбцам:

Ветер - указаны скорость ветра в м/с - средняя за 10 мин, порывы в срок и между сроками (в фигурных скобках) и направление, откуда дует ветер: С - северный, СВ - северо-восточный, В - восточный, ЮВ - юго-восточный, Ю - южный, ЮЗ - юго-западный, З - западный, СЗ - северо-западный.
Видимость - горизонтальная дальность видимости в метрах или километрах. При видимости от 1 до 10 км при отсутствии осадков обычно наблюдается дымка, при ухудшении видимости до 1 км и менее - туман. В сухую погоду видимость может ухудшаться дымом, пылью или мглою.
Явления - указаны атмосферные явления, наблюдавшиеся в срок или в последний час перед сроком; фигурными скобками обозначены явления, наблюдавшиеся между сроками (за 1-3 часа до срока); квадратными скобками обозначены град или гололедные отложения с указанием их диаметра в мм.
Облачность - указаны через наклонную черту общая и нижняя облачность в баллах и высота нижней границы облаков в метрах; квадратными скобками обозначены формы облаков: Ci - перистые, Cs - перисто-слоистые, Cc - перисто-кучевые, Ac - высококучевые, As - высокослоистые, Sc - слоисто-кучевые, Ns - слоисто-дождевые, Cu - кучевые, Cb - кучево-дождевые. Подробнее классификацию облаков см. в Атласе облаков (PDF).
T - Температура воздуха - температура, измеренная на высоте 2 м над землей.
Td - Температура точки росы - температура, при понижении до которой содержащийся в воздухе водяной пар достигнет насыщения.
f - Относительная влажность воздуха - влажноcть воздуха, измеренная на высоте 2 м над землей.
Te - Эффективная температура - температура, которую ощущает одетый по сезону человек в тени. Характеристика душности погоды. При расчете учитывается влияние влажности воздуха и скорости ветра на теплоощущения человека.
Tes - Эффективная температура на солнце - температура, которую ощущает человек, с поправкой на солнечный нагрев. Характеристика знойности погоды. Зависит от высоты солнца над горизонтом, облачности и скорости ветра. Ночью, в пасмурную погоду, а также при ветре 12 м/с и более поправка равна нулю.
P - Атмосферное давление - приведенное к уровню моря атмосферное давление.
Po - Атмосферное давление - измеренное на уровне метеостанции атмосферное давление.
Tmin - Минимальная температура - минимум температуры воздуха на высоте 2 м над землей.
Tmax - Максимальная температура - максимум температуры воздуха на высоте 2 м над землей.
R - Количество осадков - Количество выпавших осадков, мм. При наведении курсора мыши на число - период времени, за который выпало указанное количество осадков.
S - Снежный покров - Высота снежного покрова, см. При наведении курсора мыши на число - состояние снежного покрова и степень покрытия местности в баллах.